Coolangatta Observation History
Time Wind Speed Temp Pressure Rel. Hum Rain
11/03:30am SW 1-4 kts 18.3°c 1014.4 hPa 96% 0.0mm
11/03:00am SW 2-4 kts 18.2°c 1014.6 hPa 95% 0.0mm
11/02:30am CALM 0 kts 18.5°c 1014.5 hPa 96% 0.0mm
11/02:00am WSW 1-4 kts 18.7°c 1014.8 hPa 95% 0.0mm
11/01:30am CALM 0 kts 18.8°c 1015.1 hPa 93% 0.0mm
11/01:00am CALM 0 kts 19.2°c 1015.3 hPa 94% 0.0mm
11/12:30am WSW 3-4 kts 19.5°c 1015.3 hPa 95% 0.0mm
11/12:00am WSW 3-4 kts 19.4°c 1015.6 hPa 94% 0.0mm
Time Wind Speed Temp Pressure Rel. Hum Rain
10/11:30pm WSW 4-5 kts 19.4°c 1015.8 hPa 93% 0.0mm
10/11:00pm WSW 4-6 kts 20.2°c 1016.1 hPa 92% 0.0mm
10/10:30pm WSW 4-6 kts 20.6°c 1016.1 hPa 91% 0.0mm
10/10:00pm WSW 2-5 kts 20.8°c 1016.3 hPa 88% 0.0mm
10/09:30pm NW 4-5 kts 21.4°c 1016.5 hPa 82% 0.0mm
10/09:00pm N 6-9 kts 23.4°c 1016.5 hPa 76% 0.0mm
10/08:30pm N 6-8 kts 23.3°c 1016.4 hPa 76% 0.0mm
10/08:00pm N 7-9 kts 23.6°c 1016.0 hPa 75% 0.0mm
10/07:30pm NNE 7-9 kts 23.9°c 1015.8 hPa 73% 0.0mm
10/07:00pm N 7-9 kts 23.9°c 1015.4 hPa 74% 0.0mm
10/06:30pm NNE 7-9 kts 24.2°c 1015.2 hPa 72% 0.0mm
10/06:00pm NNE 9-11 kts 24.5°c 1014.8 hPa 70% 0.0mm
10/05:30pm NNE 9-11 kts 24.9°c 1014.5 hPa 68% 0.0mm
10/05:00pm NNE 9-13 kts 25.2°c 1014.3 hPa 67% 0.0mm
10/04:30pm NNE 11-14 kts 25.5°c 1013.6 hPa 66% 0.0mm
10/04:00pm NNE 10-12 kts 25.5°c 1013.9 hPa 65% 0.0mm
10/03:30pm NNE 10-12 kts 26.1°c 1013.8 hPa 60% 0.0mm
10/03:00pm NE 11-13 kts 27.4°c 1014.1 hPa 59% 0.0mm
10/02:30pm NE 12-15 kts 26.6°c 1014.3 hPa 61% 0.0mm
10/02:00pm NE 11-14 kts 26.6°c 1014.9 hPa 61% 0.0mm
10/01:30pm NE 11-14 kts 26.9°c 1015.2 hPa 62% 0.0mm
10/01:00pm NNE 10-13 kts 26.8°c 1015.4 hPa 60% 0.0mm
10/12:30pm NNE 9-12 kts 26.9°c 1015.6 hPa 63% 0.0mm
10/12:00pm NNE 9-13 kts 26.7°c 1015.6 hPa 64% 0.0mm
10/11:30am NNE 8-11 kts 25.6°c 1015.7 hPa 66% 0.0mm
10/11:00am NE 8-11 kts 26.6°c 1015.9 hPa 63% 0.0mm
10/10:30am ENE 9-11 kts 25.8°c 1016.0 hPa 65% 0.0mm
10/10:00am NE 7-9 kts 25.9°c 1016.1 hPa 65% 0.0mm
10/09:30am NE 7-10 kts 26.3°c 1016.4 hPa 67% 0.0mm
10/09:00am NE 7-10 kts 25.2°c 1016.6 hPa 65% 1.2mm
10/08:30am NE 6-9 kts 25.2°c 1016.7 hPa 66% 1.0mm
10/08:00am E 5-7 kts 24.5°c 1016.7 hPa 69% 1.0mm
10/07:30am SSW 3-4 kts 23.4°c 1016.6 hPa 80% 1.0mm
10/07:00am WSW 2-4 kts 21.9°c 1016.5 hPa 89% 1.0mm
10/06:30am SW 3-4 kts 21.3°c 1016.1 hPa 94% 1.0mm
10/06:00am SSW 1-3 kts 20.0°c 1016.0 hPa 97% 1.0mm
10/05:30am SW 2-3 kts 19.6°c 1015.7 hPa 98% 1.0mm
10/05:00am SSW 2-3 kts 19.1°c 1015.7 hPa 97% 1.0mm
10/04:30am SSW 3-4 kts 19.1°c 1015.6 hPa 97% 1.0mm
10/04:00am SSW 3-5 kts 19.2°c 1015.3 hPa 97% 1.0mm
10/03:30am SW 3-4 kts 19.2°c 1015.0 hPa 96% 1.0mm
10/03:00am SW 3-5 kts 19.5°c 1015.2 hPa 96% 1.0mm
10/02:48am SW 3-5 kts 19.5°c 1015.2 hPa 95% 1.0mm
10/02:33am CALM 0 kts 19.4°c 1015.4 hPa 94% 1.0mm
10/02:30am CALM 0 kts 19.7°c 1015.4 hPa 94% 1.0mm
10/02:00am SW 1-4 kts 20.2°c 1016.0 hPa 95% 1.0mm
10/01:30am SSW 3-4 kts 20.4°c 1016.4 hPa 94% 1.0mm
10/01:00am SSW 3-4 kts 20.5°c 1016.7 hPa 94% 1.0mm
10/12:30am S 5-7 kts 20.8°c 1017.1 hPa 93% 1.0mm
10/12:20am S 5-7 kts 21.0°c 1017.2 hPa 93% 1.0mm
10/12:16am SSW 6-8 kts 21.1°c 1017.2 hPa 93% 1.0mm
10/12:06am WSW 5-6 kts 20.9°c 1017.4 hPa 92% 1.0mm
10/12:00am SSW 6-8 kts 21.0°c 1017.5 hPa 92% 0.8mm
Time Wind Speed Temp Pressure Rel. Hum Rain
09/11:58pm SSW 6-8 kts 21.0°c 1017.5 hPa 92% 0.8mm
09/11:30pm WNW 5-7 kts 21.3°c 1017.5 hPa 89% 0.0mm
09/11:00pm NNE 5-7 kts 22.2°c 1017.5 hPa 85% 0.0mm
09/10:30pm NNE 9-11 kts 22.7°c 1017.8 hPa 82% 0.0mm
09/10:00pm ENE 9-12 kts 23.0°c 1017.6 hPa 76% 0.0mm
09/09:30pm ENE 9-11 kts 23.2°c 1017.9 hPa 75% 0.0mm
09/09:00pm ENE 10-12 kts 23.2°c 1017.9 hPa 75% 0.0mm
09/08:30pm ENE 9-12 kts 23.1°c 1017.8 hPa 73% 0.0mm
09/08:00pm E 9-11 kts 23.1°c 1017.6 hPa 73% 0.0mm
09/07:30pm ENE 9-12 kts 23.1°c 1017.6 hPa 72% 0.0mm
09/07:00pm E 9-10 kts 23.3°c 1017.5 hPa 73% 0.0mm
09/06:30pm E 10-13 kts 23.3°c 1017.4 hPa 71% 0.0mm
09/06:00pm ESE 10-13 kts 24.0°c 1017.4 hPa 67% 0.0mm
09/05:30pm E 10-12 kts 24.8°c 1017.1 hPa 58% 0.0mm
09/05:00pm ESE 10-13 kts 25.1°c 1016.9 hPa 56% 0.0mm
09/04:30pm ESE 11-15 kts 25.9°c 1016.8 hPa 56% 0.0mm
09/04:00pm ESE 11-15 kts 25.7°c 1016.8 hPa 53% 0.0mm
09/03:30pm E 12-18 kts 25.3°c 1017.1 hPa 56% 0.0mm
09/03:00pm E 11-17 kts 25.3°c 1017.2 hPa 61% 0.0mm
09/02:30pm ENE 13-18 kts 25.0°c 1017.4 hPa 64% 0.0mm
09/02:00pm E 13-17 kts 25.6°c 1017.5 hPa 60% 0.0mm
09/01:30pm E 12-17 kts 26.0°c 1017.6 hPa 60% 0.0mm
09/01:00pm E 13-16 kts 26.7°c 1017.8 hPa 56% 0.0mm
09/12:30pm ESE 12-17 kts 27.3°c 1018.0 hPa 56% 0.0mm
09/12:00pm ESE 12-16 kts 26.8°c 1018.2 hPa 57% 0.0mm
09/11:30am E 12-16 kts 26.0°c 1018.5 hPa 59% 0.0mm
09/11:00am E 11-20 kts 26.2°c 1018.7 hPa 56% 0.0mm
09/10:30am ENE 10-15 kts 26.1°c 1018.9 hPa 58% 0.0mm
09/10:00am ENE 12-16 kts 25.2°c 1018.8 hPa 62% 0.0mm
09/09:30am E 11-15 kts 25.0°c 1018.9 hPa 65% 0.0mm
09/09:00am E 10-14 kts 25.0°c 1019.1 hPa 60% 0.4mm
09/08:30am SSE 5-11 kts 24.0°c 1019.2 hPa 68% 0.4mm
09/08:00am SSE 7-11 kts 23.2°c 1019.2 hPa 74% 0.2mm
09/07:30am S 7-8 kts 22.5°c 1019.3 hPa 76% 0.2mm
09/07:00am S 5-7 kts 21.6°c 1019.0 hPa 82% 0.2mm
09/06:30am SSW 5-7 kts 20.5°c 1019.0 hPa 86% 0.2mm
09/06:00am SSW 6-7 kts 19.9°c 1018.8 hPa 88% 0.2mm
09/05:30am S 4-6 kts 19.8°c 1018.5 hPa 90% 0.2mm
09/05:00am S 4-5 kts 19.6°c 1018.5 hPa 90% 0.2mm
09/04:30am SSW 3-4 kts 19.5°c 1018.3 hPa 90% 0.2mm
09/04:00am S 9-13 kts 19.5°c 1018.2 hPa 91% 0.2mm
09/03:30am S 5-8 kts 19.7°c 1018.3 hPa 91% 0.2mm
09/03:00am S 7-10 kts 19.9°c 1018.2 hPa 90% 0.2mm
09/02:30am SW 5-7 kts 19.9°c 1018.4 hPa 89% 0.2mm
09/02:00am WSW 7-9 kts 20.0°c 1018.6 hPa 87% 0.2mm
09/01:30am SSW 4-6 kts 20.7°c 1018.7 hPa 79% 0.2mm
09/01:00am ESE 6-11 kts 21.5°c 1019.1 hPa 76% 0.2mm
09/12:30am SSE 6-9 kts 20.9°c 1019.4 hPa 78% 0.2mm
09/12:00am S 6-7 kts 21.1°c 1019.8 hPa 77% 0.2mm